Regional Weather Roundup
Issued by NWS

Home | Current Version | Previous Version | Text Only | Print | Product List | Glossary On
Versions: 1 2 3 4 5 6 7 8 9 10 11 12 13 14 15 16 17 18 19 20 21 22 23 24 25 26 27 28 29 30 31 32 33 34 35 36 37 38 39 40 41 42 43 44 45 46 47 48 49 50
000
ASUS43 KLMK 230810
RWRKY
KENTUCKY REGIONAL WEATHER ROUNDUP
NATIONAL WEATHER SERVICE LOUISVILLE KY
400 AM EDT TUE SEP 23 2014

NOTE "FAIR" INDICATES FEW OR NO CLOUDS BELOW 12,000 FEET
WITH NO SIGNIFICANT WEATHER AND/OR OBSTRUCTIONS TO VISIBILITY.

KYZ001>023-026-027-061>063-070>075-230900-
WESTERN AND SOUTH CENTRAL KENTUCKY

CITY           SKY/WX    TMP DP  RH WIND       PRES   REMARKS
PADUCAH        CLEAR     51  46  83 CALM      30.25S
HENDERSON      CLEAR     45  41  87 CALM      30.27S
OWENSBORO      FAIR      48  46  93 CALM      30.27F
HOPKINSVILLE   CLEAR     50  46  84 NE6       30.24F
BOWLING GREEN  CLEAR    N/A N/A N/A CALM      30.27R
GLASGOW        CLEAR     47  44  86 CALM      30.26S
$$

KYZ024-025-028>034-038-045-046-053-230900-
NORTH CENTRAL KENTUCKY

CITY           SKY/WX    TMP DP  RH WIND       PRES   REMARKS
LOUISVILLE/SDF CLEAR     52  46  80 N5        30.27S
LOUISVILLE/LOU CLEAR     50  45  83 CALM      30.28S
FORT KNOX      CLEAR     45  43  92 N1        30.26S
$$

KYZ035>037-039>044-047>052-055>060-089>105-230900-
NORTHEAST KENTUCKY

CITY           SKY/WX    TMP DP  RH WIND       PRES   REMARKS
LEXINGTON      CLEAR     48  42  80 NE6       30.27F
COVINGTON      CLEAR     49  42  77 CALM      30.28F
FRANKFORT      CLEAR     44  41  89 CALM      30.27S
$$

KYZ054-064>069-076>088-106>120-230900-
SOUTHEAST KENTUCKY

CITY           SKY/WX    TMP DP  RH WIND       PRES   REMARKS
JACKSON        CLEAR     50  44  80 CALM      30.26S
LONDON         CLEAR     49  45  86 CALM      30.26S
SOMERSET       CLEAR     45  45 100 CALM      30.27S
MIDDLESBORO    CLOUDY    47  47 100 CALM      30.26S
MONTICELLO     SUNNY     43  43 100 CALM      30.27S
$$




USA.gov is the U.S. government's official web portal to all federal, state and local government web resources and services.